Location: Ellerstadt
(49.4644°N, 8.2615°E)
Time: 05:00:59
(UTC+00:00)

Cosmos 2263 Rocket - Pass Details

Date: 03 March 2021
Orbit: 825 x 847 km, 71.0° (Epoch: 11 April)

Event Time Altitude Azimuth Distance (km) Brightness Sun altitude
Rises 17:46:26 0° 327° (NNW) 3,374 5.8 -6.2°
Reaches altitude 10° 17:48:56 10° 323° (NW) 2,436 5.1 -6.6°
Maximum altitude 17:54:17 49° 250° (WSW) 1,055 3.3 -7.5°
Drops below altitude 10° 17:59:36 10° 176° (S) 2,423 4.6 -8.3°
Sets 18:02:05 0° 171° (S) 3,354 5.2 -8.7°
